Abu Dhabi Bateen Airport, UAE

12:27 AM GST on December 03, 2016 (GMT +0400)
Abu Dhabi Bateen Airport

Weather History for 41216 - August, 2014

Change the Weather History Date:

Wednesday, August 20, 2014

  Actual Average Record
Temperature  
Mean Temperature 99 °F -  
Max Temperature 108 °F 103 °F - ()
Min Temperature 90 °F 82 °F - ()
Cooling Degree Days 34    
Growing Degree Days 49 (Base 50)    
Moisture  
Dew Point 67 °F    
Average Humidity 35    
Maximum Humidity 53    
Minimum Humidity 14    
Precipitation  
Precipitation 0.00 in 0.00 in - ()
Sea Level Pressure  
Sea Level Pressure 29.67 in    
Wind  
Wind Speed 7 mph ()    
Max Wind Speed 15 mph    
Max Gust Speed -    
Visibility 5.1 miles    
Events      
T = Trace of Precipitation, MM = Missing Value Source: Averaged Metar Reports

Daily Weather History Graph

Daily Weather History Graph

Search for Another Location

Airport or City:

Trip Planner

Search our weather history database for the weather conditions in past years. The results will help you decide how hot, cold, wet, or windy it might be!

Date:

Astronomy

Aug. 20, 2014 Rise Set
Actual Time 5:58 AM GST 6:52 PM GST
Civil Twilight 5:35 AM GST 7:15 PM GST
Nautical Twilight 5:07 AM GST 7:43 PM GST
Astronomical Twilight 4:39 AM GST 8:11 PM GST
Moon 1:30 AM GST (8/20) 3:07 PM GST (8/20)
Length of Visible Light 13h 40m
Length of Day
12h 53m
Waning Crescent, 23% of the Moon is Illuminated
Aug 20
Waning Crescent
Aug 25
New
Sep 2
First Quarter
Sep 9
Full
Sep 16
Last Quarter

Hourly Weather History & Observations

Time (GST) Temp. Heat Index Dew Point Humidity Pressure Visibility Wind Dir Wind Speed Gust Speed Precip Events Conditions
12:00 AM 95.0 °F 107.4 °F 75.2 °F 53% 29.68 in 4.3 mi East 3.5 mph - N/A   Unknown
1:00 AM 95.0 °F 103.2 °F 71.6 °F 47% 29.68 in 5.0 mi East 3.5 mph - N/A   Unknown
2:00 AM 95.0 °F 103.2 °F 71.6 °F 47% 29.68 in 5.0 mi East 4.6 mph - N/A   Unknown
3:00 AM 95.0 °F 97.0 °F 64.4 °F 36% 29.65 in - East 6.9 mph - N/A   Clear
4:00 AM 94 °F - 65 °F 28% 29.68 in 5 mi ESE 8.1 mph - -   Widespread Dust
4:00 AM 95.0 °F 97.0 °F 64.4 °F 36% 29.68 in 5.0 mi ESE 8.1 mph - N/A   Unknown
5:00 AM 95.0 °F 95.2 °F 60.8 °F 32% 29.68 in 5.0 mi SSE 9.2 mph - N/A   Unknown
6:00 AM 93.2 °F 94.9 °F 64.4 °F 38% 29.68 in - SSE 11.5 mph - N/A   Clear
7:00 AM 90 °F - 68 °F 39% 29.71 in 5 mi SSE 15.0 mph - -   Widespread Dust
7:00 AM 91.4 °F 95.4 °F 68.0 °F 46% 29.71 in 5.0 mi SSE 15.0 mph - N/A   Unknown
8:00 AM 91.4 °F 95.4 °F 68.0 °F 46% 29.71 in 5.0 mi SSE 12.7 mph - N/A   Unknown
9:00 AM 93.2 °F 96.2 °F 66.2 °F 41% 29.74 in 5.0 mi SE 15.0 mph - N/A   Unknown
10:00 AM 96 °F - 64 °F 26% 29.74 in 4 mi SSE 15.0 mph - -   Widespread Dust
10:00 AM 96.8 °F 99.0 °F 64.4 °F 34% 29.74 in 4.3 mi SSE 15.0 mph - N/A   Unknown
12:00 PM 102.2 °F 103.6 °F 60.8 °F 26% 29.71 in 5.0 mi South 6.9 mph - N/A   Unknown
1:00 PM 105 °F - 60 °F 14% 29.70 in 5 mi SW 9.2 mph - -   Widespread Dust
1:00 PM 105.8 °F 106.8 °F 59.0 °F 22% 29.68 in 5.0 mi SW 9.2 mph - N/A   Unknown
2:00 PM 107.6 °F 108.2 °F 59.0 °F 20% 29.65 in 5.6 mi WSW 9.2 mph - N/A   Unknown
3:00 PM 107.6 °F 108.2 °F 59.0 °F 20% 29.65 in 5.0 mi West 5.8 mph - N/A   Unknown
4:00 PM 106 °F - 63 °F 16% 29.64 in 5 mi NNW 11.5 mph - -   Widespread Dust
4:00 PM 105.8 °F 108.3 °F 62.6 °F 24% 29.62 in 5.0 mi NNW 11.5 mph - N/A   Unknown
5:00 PM 104.0 °F 107.4 °F 64.4 °F 27% 29.62 in 5.6 mi NNW 12.7 mph - N/A   Unknown
6:00 PM 100.4 °F 107.8 °F 69.8 °F 37% 29.62 in 5.6 mi NNW 10.4 mph - N/A   Unknown
7:00 PM 97 °F - 74 °F 38% 29.64 in 6 mi NNW 9.2 mph - -   Widespread Dust
7:00 PM 96.8 °F 107.3 °F 73.4 °F 47% 29.62 in 5.6 mi NNW 9.2 mph - N/A   Unknown
8:00 PM 96.8 °F 103.1 °F 69.8 °F 41% 29.62 in 5.0 mi NNW 6.9 mph - N/A   Unknown
9:00 PM 96.8 °F 105.1 °F 71.6 °F 44% 29.62 in - NNW 5.8 mph - N/A   Clear
10:00 PM 96 °F - 71 °F 35% 29.65 in 6 mi NNW 3.5 mph - -   Clear
10:00 PM 96.8 °F 105.1 °F 71.6 °F 44% 29.62 in - NNW 3.5 mph - N/A   Clear
11:00 PM 96.8 °F 105.1 °F 71.6 °F 44% 29.62 in - NNW 2.3 mph - N/A   Clear